Weather History for K3A1 - March, 2012

Change the Weather History Date:

Saturday, March 10, 2012

  Actual Average (KHSV) Record (KHSV)
Temperature  
Mean Temperature 52 °F 52 °F  
Max Temperature 68 °F 63 °F 79 °F (2009)
Min Temperature 35 °F 41 °F 15 °F (1932)
Degree Days  
Heating Degree Days 14 13  
Month to date heating degree days 145  
Since 1 July heating degree days 2597  
Cooling Degree Days 0 0  
Month to date cooling degree days 0  
Year to date cooling degree days 1  
Growing Degree Days 2 (Base 50)    
Moisture  
Dew Point 14 °F    
Average Humidity 25    
Maximum Humidity 56    
Minimum Humidity 11    
Precipitation  
Precipitation 0.00 in 0.16 in 2.59 in (1938)
Month to date precipitation 1.66  
Year to date precipitation 11.39  
Snow  
Snow 0.00 in - - ()
Month to date snowfall  
Since 1 July snowfall  
Snow Depth -    
Sea Level Pressure  
Sea Level Pressure 30.37 in    
Wind  
Wind Speed 1 mph (East)    
Max Wind Speed 9 mph    
Max Gust Speed -    
Visibility 10 miles    
Events      
T = Trace of Precipitation, MM = Missing Value Source: NWS Daily Summary

Daily Weather History Graph

Daily Weather History Graph

Search for Another Location

Airport or City:

Trip Planner

Search our weather history database for the weather conditions in past years. The results will help you decide how hot, cold, wet, or windy it might be!

Date:

Astronomy

Mar. 10, 2012 Rise Set
Actual Time 6:04 AM CST 5:51 PM CST
Civil Twilight 5:38 AM CST 6:16 PM CST
Nautical Twilight 5:09 AM CST 6:45 PM CST
Astronomical Twilight 4:40 AM CST 7:14 PM CST
Moon 8:51 PM CST (3/10) 7:08 AM CST (3/10)
Length of Visible Light 12h 37m
Length of Day
11h 47m
Waning Gibbous, 92% of the Moon is Illuminated
Mar 10
Waning Gibbous
Mar 14
Last Quarter
Mar 22
New
Mar 30
First Quarter
Apr 6
Full

Hourly Weather History & Observations

Time (CST) Temp. Windchill Dew Point Humidity Pressure Visibility Wind Dir Wind Speed Gust Speed Precip Events Conditions
12:15 AM 48.2 °F - 14.4 °F 26% 30.38 in 10.0 mi Calm Calm - N/A   Clear
12:55 AM 46.8 °F - 13.6 °F 26% 30.37 in 10.0 mi North 3.5 mph - N/A   Clear
1:15 AM 45.5 °F 43.2 °F 12.9 °F 27% 30.37 in 10.0 mi North 4.6 mph - N/A   Clear
1:35 AM 45.3 °F - 13.8 °F 28% 30.37 in 10.0 mi Calm Calm - N/A   Clear
1:55 AM 43.0 °F - 13.8 °F 31% 30.36 in 10.0 mi Calm Calm - N/A   Clear
2:15 AM 41.4 °F - 14.9 °F 34% 30.36 in 10.0 mi Calm Calm - N/A   Clear
2:35 AM 40.8 °F - 15.3 °F 35% 30.35 in 10.0 mi Calm Calm - N/A   Clear
2:55 AM 40.5 °F - 16.5 °F 38% 30.35 in 10.0 mi Calm Calm - N/A   Clear
3:15 AM 40.5 °F - 14.9 °F 35% 30.35 in 10.0 mi Calm Calm - N/A   Clear
3:35 AM 40.3 °F - 15.6 °F 37% 30.35 in 10.0 mi Calm Calm - N/A   Clear
3:55 AM 39.9 °F - 15.6 °F 37% 30.36 in 10.0 mi Calm Calm - N/A   Clear
4:15 AM 39.6 °F - 15.6 °F 38% 30.37 in 10.0 mi Calm Calm - N/A   Clear
4:35 AM 37.9 °F - 18.0 °F 45% 30.37 in 10.0 mi Calm Calm - N/A   Clear
4:55 AM 37.9 °F - 18.7 °F 46% 30.37 in 10.0 mi Calm Calm - N/A   Clear
5:15 AM 36.1 °F - 19.4 °F 51% 30.37 in 10.0 mi Calm Calm - N/A   Clear
5:35 AM 35.6 °F - 19.4 °F 52% 30.38 in 10.0 mi Calm Calm - N/A   Clear
5:55 AM 35.6 °F - 20.1 °F 53% 30.38 in 10.0 mi Calm Calm - N/A   Clear
6:15 AM 35.6 °F - 19.2 °F 51% 30.38 in 10.0 mi Calm Calm - N/A   Clear
6:35 AM 35.6 °F - 21.2 °F 56% 30.38 in 10.0 mi Calm Calm - N/A   Clear
6:55 AM 37.2 °F - 20.5 °F 51% 30.39 in 10.0 mi Calm Calm - N/A   Clear
7:35 AM 44.8 °F 43.3 °F 16.9 °F 33% 30.41 in 10.0 mi NE 3.5 mph - N/A   Clear
7:55 AM 48.2 °F - 14.2 °F 26% 30.41 in 10.0 mi Calm Calm - N/A   Clear
8:15 AM 48.4 °F - 12.4 °F 24% 30.42 in 10.0 mi Calm Calm - N/A   Clear
8:35 AM 50.4 °F - 11.7 °F 21% 30.42 in 10.0 mi East 5.8 mph - N/A   Clear
8:55 AM 53.1 °F - 11.7 °F 19% 30.42 in 10.0 mi Calm Calm - N/A   Clear
9:15 AM 53.1 °F - 11.3 °F 19% 30.43 in 10.0 mi Calm Calm - N/A   Clear
9:35 AM 55.0 °F - 11.8 °F 18% 30.43 in 10.0 mi Calm Calm - N/A   Clear
9:55 AM 56.8 °F - 9.1 °F 15% 30.42 in 10.0 mi Calm Calm - N/A   Clear
10:15 AM 58.1 °F - 9.0 °F 14% 30.42 in 10.0 mi ESE 9.2 mph - N/A   Clear
10:35 AM 58.3 °F - 9.0 °F 14% 30.42 in 10.0 mi Calm Calm - N/A   Clear
10:55 AM 59.4 °F - 9.0 °F 14% 30.41 in 10.0 mi Calm Calm - N/A   Clear
11:15 AM 60.4 °F - 9.7 °F 13% 30.40 in 10.0 mi ESE 6.9 mph - N/A   Clear
11:35 AM 61.3 °F - 10.0 °F 13% 30.39 in 10.0 mi SE 8.1 mph - N/A   Clear
11:55 AM 63.0 °F - 11.5 °F 13% 30.39 in 10.0 mi SSE 3.5 mph - N/A   Clear
12:15 PM 63.5 °F - 10.8 °F 13% 30.39 in 10.0 mi Calm Calm - N/A   Clear
12:35 PM 64.9 °F - 14.2 °F 14% 30.37 in 10.0 mi Calm Calm - N/A   Clear
12:55 PM 65.8 °F - 11.8 °F 12% 30.36 in 10.0 mi SE 3.5 mph - N/A   Clear
1:15 PM 67.5 °F - 12.9 °F 12% 30.35 in 10.0 mi Calm Calm - N/A   Clear
1:35 PM 68.0 °F - 12.9 °F 12% 30.35 in 10.0 mi ENE 6.9 mph - N/A   Clear
1:55 PM 68.0 °F - 11.8 °F 11% 30.34 in 10.0 mi Calm Calm - N/A   Clear
2:15 PM 68.0 °F - 11.3 °F 11% 30.34 in 10.0 mi Calm Calm - N/A   Clear
2:35 PM 68.0 °F - 10.6 °F 11% 30.34 in 10.0 mi Calm Calm - N/A   Clear
2:55 PM 68.0 °F - 10.6 °F 11% 30.33 in 10.0 mi Calm Calm - N/A   Clear
3:15 PM 68.0 °F - 10.4 °F 11% 30.32 in 10.0 mi Calm Calm - N/A   Clear
3:35 PM 68.0 °F - 11.7 °F 11% 30.31 in 10.0 mi ENE 6.9 mph - N/A   Clear
3:55 PM 68.0 °F - 11.5 °F 11% 30.31 in 10.0 mi Calm Calm - N/A   Clear
4:15 PM 68.0 °F - 12.7 °F 12% 30.30 in 10.0 mi Calm Calm - N/A   Clear
4:35 PM 68.0 °F - 13.3 °F 12% 30.30 in 10.0 mi Calm Calm - N/A   Clear
4:55 PM 68.0 °F - 14.7 °F 13% 30.31 in 10.0 mi Calm Calm - N/A   Clear
5:15 PM 66.0 °F - 14.7 °F 14% 30.31 in 10.0 mi Calm Calm - N/A   Clear
5:35 PM 64.4 °F - 16.0 °F 15% 30.32 in 10.0 mi Calm Calm - N/A   Clear
5:55 PM 61.0 °F - 18.3 °F 19% 30.31 in 10.0 mi Calm Calm - N/A   Clear
6:15 PM 56.7 °F - 27.7 °F 33% 30.32 in 10.0 mi Calm Calm - N/A   Clear
6:35 PM 54.7 °F - 30.2 °F 39% 30.33 in 10.0 mi Calm Calm - N/A   Clear
6:55 PM 52.5 °F - 32.5 °F 47% 30.33 in 10.0 mi Calm Calm - N/A   Clear
7:15 PM 50.5 °F - 31.5 °F 48% 30.34 in 10.0 mi Calm Calm - N/A   Clear
7:35 PM 50.7 °F - 31.6 °F 48% 30.34 in 10.0 mi Calm Calm - N/A   Clear
7:55 PM 49.8 °F - 32.4 °F 51% 30.34 in 10.0 mi Calm Calm - N/A   Clear
8:15 PM 53.4 °F - 28.4 °F 38% 30.34 in 10.0 mi Calm Calm - N/A   Clear
8:35 PM 55.4 °F - 24.8 °F 31% 30.35 in 10.0 mi Calm Calm - N/A   Clear
8:55 PM 54.7 °F - 24.8 °F 32% 30.35 in 10.0 mi Calm Calm - N/A   Clear
9:15 PM 57.6 °F - 20.7 °F 24% 30.34 in 10.0 mi Calm Calm - N/A   Clear
9:55 PM 56.5 °F - 19.2 °F 23% 30.34 in 10.0 mi Calm Calm - N/A   Clear
10:15 PM 55.4 °F - 19.8 °F 25% 30.34 in 10.0 mi Calm Calm - N/A   Clear
10:35 PM 55.4 °F - 21.2 °F 26% 30.35 in 10.0 mi Calm Calm - N/A   Clear
10:55 PM 55.2 °F - 22.1 °F 28% 30.34 in 10.0 mi Calm Calm - N/A   Clear
11:15 PM 54.9 °F - 21.4 °F 27% 30.34 in 10.0 mi Calm Calm - N/A   Clear
11:55 PM 53.1 °F - 20.5 °F 28% 30.34 in 10.0 mi Calm Calm - N/A   Clear